Simultaneous Nadir Overpasses (SNOs) Predictions

Prediction of SNOs between LANDSAT-8 and NPP Satellite Orbit:

Table of predicted SNOs for the next 14.0 days since TLE Epoch: 5/25/2019
Index Date (LANDSAT-8) Time (LANDSAT-8) Lat,Lon (LANDSAT-8) SZA (LANDSAT-8 ) Date (NPP) Time (NPP) Lat,Lon (NPP) SZA (NPP ) Distance(km) Time Diff (sec)
1 05/25/2019 14:41:35 70.09, -44.02 49.04 05/25/2019 14:40:51 70.11, -43.97 49.07 2.93 44
2 05/25/2019 15:31:04 -70.04, 123.54 131.01 05/25/2019 15:31:33 -70.02, 123.49 131.04 3.41 29
3 05/28/2019 06:08:25 -70.94, -94.53 130.58 05/28/2019 06:07:18 -70.98, -96.91 130.48 86.63 67
4 05/28/2019 06:58:06 70.06, 71.82 48.56 05/28/2019 06:57:47 70.09, 71.84 48.59 2.56 19
5 05/28/2019 07:47:36 -69.96,-120.69 131.54 05/28/2019 07:48:29 -69.99,-120.70 131.52 3.04 53
6 05/30/2019 22:25:09 -70.15, 20.17 131.77 05/30/2019 22:23:58 -70.17, 20.16 131.73 2.78 71
7 05/30/2019 23:14:36 70.03,-172.35 48.12 05/30/2019 23:14:42 70.06,-172.36 48.15 3.37 6
8 05/31/2019 00:04:09 -69.77, -5.09 132.14 05/31/2019 00:05:21 -69.81, -4.66 132.12 16.96 72
9 06/02/2019 14:41:40 -70.11, 136.00 132.16 06/02/2019 14:40:53 -70.09, 136.05 132.18 2.75 47
10 06/02/2019 15:31:07 70.00, -56.52 47.72 06/02/2019 15:31:37 69.99, -56.48 47.71 1.87 30
11 06/05/2019 06:08:29 70.83, 85.31 48.22 06/05/2019 06:07:21 70.91, 83.19 48.37 77.60 68
12 06/05/2019 06:58:11 -70.08,-108.18 132.52 06/05/2019 06:57:49 -70.07,-108.15 132.52 0.95 22
13 06/05/2019 07:47:38 69.96, 59.30 47.37 06/05/2019 07:48:33 69.97, 59.32 47.37 1.25 55
14 06/07/2019 22:25:12 70.13,-159.85 47.27 06/07/2019 22:24:03 70.16,-159.83 47.31 3.28 69
15 06/07/2019 23:14:42 -70.03, 7.64 132.83 06/07/2019 23:14:45 -70.05, 7.65 132.81 2.21 3
16 06/08/2019 00:04:13 69.69, 174.82 46.84 06/08/2019 00:05:24 69.68, 175.51 46.81 26.66 71




NCC Satellite Simultaneous Nadir Overpasses (SNOs) Prediction Service
